Date String (YYYY-MM-DD hh:mm:ss) UTC,Instrument flags,Ambient pressure (hPa),Sample flow (lpm),Bypass flow (lpm),Sample temperature (°C),Ambient temperature (°C),ASC tube jacket temperature (°C),LED temperature (°C),Box temperature (°C),Sample RH (%),Span deviation,Mass concentration (μg/m³),Mass concentration (μg/m³),Mass concentration (μg/m³)
DateTimeUTC,F1_M11,P_M11,Q1_M11,Q2_M11,T1_M11,T2_M11,T3_M11,T4_M11,T5_M11,U1_M11,ZSPAN_M11,X0_M11,X2_M11,X1_M11
2022-11-12 09:00:00,,0827.2,5.00,0.00,22.2,20.7,00.0,31.1,24.0,09.5,-001.0,0015.86,0008.04,0007.08
2022-11-12 09:01:00,,0827.2,5.00,0.00,22.2,20.6,00.0,31.1,24.0,09.5,-001.4,0015.69,0008.01,0007.09
2022-11-12 09:02:00,,0827.2,5.00,0.00,22.2,20.8,00.0,31.1,24.0,09.4,-001.6,0015.22,0007.97,0007.08
2022-11-12 09:03:00,,0827.3,5.00,0.00,22.3,21.7,00.0,31.1,24.2,09.4,-001.2,0015.37,0007.93,0007.08
2022-11-12 09:04:00,,0827.2,4.99,0.00,22.4,22.3,00.0,31.1,24.4,09.3,-000.9,0015.69,0007.92,0007.05
2022-11-12 09:05:00,,0827.2,5.00,0.00,22.4,22.0,00.0,31.1,24.4,09.3,-000.6,0015.69,0007.88,0007.01
2022-11-12 09:06:00,,0827.2,5.00,0.00,22.4,21.7,00.0,31.1,24.3,09.3,-000.6,0015.67,0007.79,0006.98
2022-11-12 09:07:00,,0827.2,5.00,0.00,22.4,21.4,00.0,31.2,24.2,09.3,-000.2,0015.40,0007.76,0006.95
2022-11-12 09:08:00,,0827.2,5.01,0.00,22.3,21.1,00.0,31.2,24.2,09.3,-000.2,0015.24,0007.75,0006.95
2022-11-12 09:09:00,,0827.2,4.99,0.00,22.3,20.9,00.0,31.2,24.1,09.3,-000.1,0014.38,0007.71,0006.95
2022-11-12 09:10:00,,0827.1,5.00,0.00,22.3,20.8,00.0,31.2,24.1,09.3,0000.2,0013.86,0007.68,0006.93
2022-11-12 09:11:00,,0827.1,5.00,0.00,22.3,20.7,00.0,31.1,24.0,09.3,0000.2,0014.71,0007.64,0006.90
2022-11-12 09:12:00,,0827.1,5.01,0.00,22.2,20.6,00.0,31.1,24.0,09.4,0000.4,0014.71,0007.61,0006.89
2022-11-12 09:13:00,,0827.2,5.01,0.00,22.2,20.6,00.0,31.1,24.0,09.4,0001.0,0015.05,0007.64,0006.90
2022-11-12 09:14:00,,0827.4,4.99,0.00,22.2,20.6,00.0,31.1,24.0,09.4,0001.4,0015.39,0007.66,0006.92
2022-11-12 09:15:00,,0827.2,4.99,0.00,22.2,21.5,00.0,31.1,24.2,09.4,0001.5,0014.81,0007.63,0006.94
2022-11-12 09:16:00,,0827.5,4.99,0.00,22.4,22.4,00.0,31.1,24.4,09.4,0001.0,0015.22,0007.65,0006.95
2022-11-12 09:17:00,,0827.4,5.01,0.00,22.4,22.3,00.0,31.1,24.4,09.4,0001.2,0015.15,0007.72,0006.98
2022-11-12 09:18:00,,0827.3,5.00,0.00,22.4,21.9,00.0,31.2,24.4,09.4,0001.4,0014.96,0007.73,0007.02
2022-11-12 09:19:00,,0827.1,5.01,0.00,22.4,21.6,00.0,31.2,24.3,09.4,0001.3,0014.95,0007.78,0007.06
2022-11-12 09:20:00,,0827.0,5.00,0.00,22.4,21.3,00.0,31.2,24.2,09.4,0001.3,0014.85,0007.79,0007.08
2022-11-12 09:21:00,,0827.0,5.00,0.00,22.4,21.1,00.0,31.2,24.2,09.5,0001.1,0014.79,0007.83,0007.14
2022-11-12 09:22:00,,0827.0,5.00,0.00,22.3,20.9,00.0,31.2,24.1,09.5,0001.3,0013.67,0007.88,0007.20
2022-11-12 09:23:00,,0827.0,4.99,0.00,22.3,20.7,00.0,31.2,24.1,09.6,0001.5,0013.98,0007.94,0007.26
2022-11-12 09:24:00,,0826.9,5.01,0.00,22.3,20.7,00.0,31.2,24.0,09.7,0001.5,0014.20,0007.99,0007.30
2022-11-12 09:25:00,,0827.0,4.99,0.00,22.2,20.6,00.0,31.1,24.0,09.7,0000.6,0013.81,0008.09,0007.33
2022-11-12 09:26:00,,0827.1,5.01,0.00,22.2,20.6,00.0,31.1,23.9,09.8,0000.4,0014.05,0008.20,0007.39
2022-11-12 09:27:00,,0827.1,5.00,0.00,22.2,20.7,00.0,31.1,24.0,09.8,0000.6,0014.34,0008.24,0007.44
2022-11-12 09:28:00,,0827.1,4.99,0.00,22.3,21.6,00.0,31.1,24.2,09.7,0001.1,0014.45,0008.29,0007.48
2022-11-12 09:29:00,,0827.0,5.01,0.00,22.4,22.3,00.0,31.1,24.4,09.7,0001.4,0014.95,0008.33,0007.49
2022-11-12 09:30:00,,0827.0,5.00,0.00,22.4,22.0,00.0,31.1,24.3,09.6,0001.1,0015.52,0008.37,0007.51
2022-11-12 09:31:00,,0826.9,5.01,0.00,22.4,21.5,00.0,31.1,24.3,09.6,0001.2,0016.67,0008.40,0007.52
2022-11-12 09:32:00,,0826.9,4.98,0.00,22.3,21.2,00.0,31.1,24.2,09.7,0001.3,0017.17,0008.42,0007.52
2022-11-12 09:33:00,,0826.9,5.01,0.00,22.3,20.9,00.0,31.1,24.1,09.8,0000.9,0017.95,0008.42,0007.51
2022-11-12 09:34:00,,0826.9,4.99,0.00,22.2,20.7,00.0,31.1,24.0,09.8,0001.0,0017.73,0008.43,0007.53
2022-11-12 09:35:00,,0826.9,5.01,0.00,22.2,20.5,00.0,31.1,23.9,09.9,0000.8,0017.55,0008.47,0007.55
2022-11-12 09:36:00,,0826.9,5.01,0.00,22.2,20.4,00.0,31.1,23.9,09.9,0000.9,0017.39,0008.48,0007.58
2022-11-12 09:37:00,,0827.0,5.00,0.00,22.1,20.2,00.0,31.1,23.8,09.9,0001.3,0017.18,0008.43,0007.57
2022-11-12 09:38:00,,0827.1,5.00,0.00,22.1,20.1,00.0,31.0,23.8,09.9,0001.5,0016.84,0008.42,0007.56
2022-11-12 09:39:00,,0827.0,4.99,0.00,22.0,20.5,00.0,31.0,23.8,09.8,0001.1,0017.29,0008.44,0007.56
2022-11-12 09:40:00,,0827.0,5.00,0.00,22.1,21.7,00.0,31.0,24.1,09.8,0000.4,0016.94,0008.43,0007.55
2022-11-12 09:41:00,,0827.1,4.99,0.00,22.2,22.2,00.0,31.0,24.2,09.7,0000.1,0016.69,0008.42,0007.53
2022-11-12 09:42:00,,0827.1,5.00,0.00,22.3,21.8,00.0,31.0,24.2,09.7,0000.4,0016.20,0008.43,0007.54
2022-11-12 09:43:00,,0827.0,5.01,0.00,22.3,21.5,00.0,31.0,24.2,09.7,0000.4,0016.16,0008.45,0007.55
2022-11-12 09:44:00,,0826.8,5.00,0.00,22.3,21.3,00.0,31.1,24.1,09.7,0000.4,0015.62,0008.46,0007.54
2022-11-12 09:45:00,,0826.8,5.00,0.00,22.2,21.1,00.0,31.1,24.1,09.7,-000.1,0015.09,0008.43,0007.52
2022-11-12 09:46:00,,0826.8,5.00,0.00,22.2,20.9,00.0,31.1,24.0,09.7,-000.7,0015.35,0008.39,0007.48
2022-11-12 09:47:00,,0826.8,5.00,0.00,22.2,20.8,00.0,31.1,24.0,09.7,-000.2,0015.43,0008.34,0007.45
2022-11-12 09:48:00,,0826.8,5.00,0.00,22.2,20.7,00.0,31.0,24.0,09.7,-000.5,0015.81,0008.36,0007.43
2022-11-12 09:49:00,,0826.8,5.00,0.00,22.2,20.6,00.0,31.0,23.9,09.7,-001.2,0016.19,0008.38,0007.42
2022-11-12 09:50:00,,0826.8,5.00,0.00,22.1,20.5,00.0,31.0,23.9,09.7,-001.1,0015.98,0008.34,0007.42
2022-11-12 09:51:00,,0826.8,4.98,0.00,22.1,20.5,00.0,31.0,23.9,09.7,-000.8,0016.33,0008.37,0007.44
2022-11-12 09:52:00,,0826.8,4.99,0.00,22.1,21.0,00.0,31.0,24.0,09.7,-000.8,0016.93,0008.39,0007.45
2022-11-12 09:53:00,,0826.8,5.01,0.00,22.2,22.0,00.0,31.0,24.2,09.7,-001.1,0017.04,0008.39,0007.42
2022-11-12 09:54:00,,0826.8,5.01,0.00,22.3,22.4,00.0,31.0,24.4,09.6,-001.4,0016.79,0008.36,0007.41
2022-11-12 09:55:00,,0826.8,4.99,0.00,22.4,22.0,00.0,31.0,24.3,09.6,-001.0,0017.72,0008.38,0007.40
2022-11-12 09:56:00,,0826.8,5.01,0.00,22.3,21.6,00.0,31.1,24.2,09.6,-000.3,0017.70,0008.39,0007.39
2022-11-12 09:57:00,,0826.8,5.00,0.00,22.3,21.4,00.0,31.1,24.2,09.6,0000.3,0017.40,0008.39,0007.39
2022-11-12 09:58:00,,0826.8,5.00,0.00,22.3,21.1,00.0,31.1,24.1,09.6,-000.2,0017.38,0008.36,0007.38
2022-11-12 09:59:00,,0826.8,5.01,0.00,22.3,20.9,00.0,31.1,24.1,09.6,0000.1,0017.35,0008.30,0007.35
